RYR54MJ LEMG-LKTB

Flight info

Callsign RYR54MJ
Flight time 3h 9m
Altitude 34000
Route RIXUR M445 PEPAS DCT ARPEX DCT KOSEL/N0441F360 DCT BUDIT DCT ETURA DCT TOSTO DCT OLPOS DCT BEGOX DCT LASPO DCT SOPET DCT DIKUT DCT TORDU DCT LOTOS DCT EBROX DCT PEXOT DCT RODRA DCT BCN DCT SALON DCT AGENA DCT BODEQ DCT LUMAS DCT NEVIX DCT NETUP DCT STP DCT RAPED DCT PIGOS DCT EKSID DCT NOSTA DCT NOPMU DCT MEBUR DCT PIKOT DCT NOBMI DCT MOVOR DCT BORMI DCT MALUG/N0436F370 DCT INGID DCT STO DCT LEDVA
Aircraft B738/M-SDE2E3FGHIRWXY/LB1

Departure

Time 2026-04-16 21:15
Airport Málaga-Costa del Sol Airport (LEMG)

Arrival

Time 2026-04-17 00:24
Airport Brno-Tuřany Airport (LKTB)
Time Latitude Longitude Altitude Speed Heading
2026-04-16 20:48 36.67852 -4.48863 15 ft 0 kts 355°
2026-04-16 21:01 36.67849 -4.48863 42 ft 3 kts 355°
2026-04-16 21:01 36.67822 -4.48861 42 ft 4 kts 355°
2026-04-16 21:02 36.67798 -4.48854 40 ft 4 kts 311°
2026-04-16 21:02 36.67794 -4.48848 41 ft 3 kts 297°
2026-04-16 21:06 36.67797 -4.48853 40 ft 3 kts 298°
2026-04-16 21:06 36.67823 -4.48914 42 ft 12 kts 298°
2026-04-16 21:06 36.67866 -4.49017 42 ft 14 kts 297°
2026-04-16 21:06 36.67909 -4.49121 42 ft 13 kts 297°
2026-04-16 21:07 36.67946 -4.49209 42 ft 8 kts 297°
2026-04-16 21:07 36.67949 -4.49215 43 ft 0 kts 297°
2026-04-16 21:07 36.67991 -4.49240 42 ft 14 kts
2026-04-16 21:08 36.68044 -4.49228 44 ft 3 kts 320°
2026-04-16 21:08 36.68058 -4.49252 44 ft 4 kts 303°
2026-04-16 21:08 36.68084 -4.49306 44 ft 11 kts 297°
2026-04-16 21:08 36.68121 -4.49412 45 ft 14 kts 290°
2026-04-16 21:09 36.68093 -4.49518 47 ft 13 kts 233°
2026-04-16 21:09 36.68027 -4.49599 47 ft 14 kts 221°
2026-04-16 21:09 36.67947 -4.49688 48 ft 16 kts 221°
2026-04-16 21:09 36.67865 -4.49778 51 ft 15 kts 221°
2026-04-16 21:10 36.67795 -4.49880 52 ft 16 kts 266°
2026-04-16 21:10 36.67858 -4.49990 52 ft 16 kts 311°
2026-04-16 21:10 36.67913 -4.50102 52 ft 16 kts 251°
2026-04-16 21:10 36.67911 -4.50220 55 ft 15 kts 322°
2026-04-16 21:11 36.67991 -4.50318 51 ft 20 kts 311°
2026-04-16 21:11 36.68089 -4.50455 52 ft 21 kts 311°
2026-04-16 21:11 36.68185 -4.50589 52 ft 21 kts 311°
2026-04-16 21:11 36.68278 -4.50719 56 ft 20 kts 312°
2026-04-16 21:12 36.68339 -4.50804 56 ft 19 kts 311°
2026-04-16 21:12 36.68427 -4.50930 60 ft 19 kts 311°
2026-04-16 21:12 36.68501 -4.51059 60 ft 18 kts 277°
2026-04-16 21:12 36.68407 -4.51126 64 ft 15 kts 188°
2026-04-16 21:13 36.68348 -4.51105 61 ft 0 kts 136°
2026-04-16 21:14 36.68343 -4.51100 58 ft 10 kts 135°
2026-04-16 21:14 36.68117 -4.50785 55 ft 86 kts 131°
2026-04-16 21:14 36.67564 -4.50016 50 ft 149 kts 132°
2026-04-16 21:14 36.66774 -4.48918 335 ft 179 kts 132°
2026-04-16 21:15 36.65970 -4.47803 1334 ft 169 kts 131°
2026-04-16 21:15 36.65193 -4.46713 2124 ft 171 kts 130°
2026-04-16 21:15 36.64405 -4.45607 2922 ft 170 kts 131°
2026-04-16 21:15 36.63601 -4.44481 3566 ft 183 kts 131°
2026-04-16 21:16 36.62678 -4.43190 3814 ft 211 kts 131°
2026-04-16 21:16 36.61653 -4.41758 4160 ft 227 kts 131°
2026-04-16 21:16 36.60601 -4.40279 4753 ft 233 kts 129°
2026-04-16 21:16 36.59816 -4.38504 5459 ft 236 kts 108°
2026-04-16 21:17 36.59428 -4.36525 6308 ft 235 kts 101°
2026-04-16 21:17 36.59116 -4.34518 7074 ft 238 kts 101°
2026-04-16 21:17 36.58794 -4.32471 7774 ft 242 kts 101°
2026-04-16 21:17 36.58461 -4.30424 8496 ft 245 kts 102°
2026-04-16 21:18 36.58159 -4.28286 9189 ft 251 kts 93°
2026-04-16 21:18 36.58214 -4.26047 9484 ft 275 kts 85°
2026-04-16 21:18 36.58429 -4.23592 9952 ft 290 kts 84°
2026-04-16 21:18 36.58666 -4.21068 10616 ft 295 kts 84°
2026-04-16 21:19 36.58891 -4.18518 11366 ft 297 kts 84°
2026-04-16 21:19 36.59097 -4.15972 12091 ft 300 kts 84°
2026-04-16 21:19 36.59297 -4.13366 12808 ft 304 kts 84°
2026-04-16 21:19 36.59493 -4.10735 13534 ft 307 kts 84°
2026-04-16 21:20 36.59735 -4.08078 14217 ft 311 kts 76°
2026-04-16 21:20 36.60595 -4.05611 14862 ft 312 kts 58°
2026-04-16 21:20 36.61727 -4.03320 15543 ft 314 kts 58°
2026-04-16 21:20 36.62880 -4.00991 16185 ft 317 kts 58°
2026-04-16 21:21 36.64043 -3.98639 16857 ft 320 kts 54°
2026-04-16 21:21 36.65595 -3.96652 17381 ft 326 kts 34°
2026-04-16 21:21 36.67599 -3.95155 17559 ft 345 kts 29°
2026-04-16 21:21 36.69745 -3.93655 17715 ft 363 kts 29°
2026-04-16 21:22 36.71990 -3.92071 17959 ft 377 kts 29°
2026-04-16 21:22 36.74289 -3.90419 18478 ft 383 kts 30°
2026-04-16 21:22 36.76597 -3.88740 19047 ft 385 kts 30°
2026-04-16 21:22 36.78921 -3.87047 19599 ft 387 kts 30°
2026-04-16 21:23 36.81228 -3.85365 20135 ft 390 kts 30°
2026-04-16 21:23 36.83586 -3.83647 20673 ft 393 kts 30°
2026-04-16 21:23 36.85957 -3.81921 21208 ft 396 kts 30°
2026-04-16 21:23 36.88351 -3.80179 21720 ft 399 kts 30°
2026-04-16 21:24 36.90762 -3.78424 22198 ft 403 kts 30°
2026-04-16 21:24 36.93193 -3.76653 22681 ft 406 kts 30°
2026-04-16 21:24 36.95649 -3.74861 23169 ft 409 kts 30°
2026-04-16 21:24 36.98121 -3.73056 23670 ft 412 kts 30°
2026-04-16 21:25 37.00600 -3.71244 24095 ft 414 kts 30°
2026-04-16 21:25 37.03100 -3.69415 24514 ft 416 kts 30°
2026-04-16 21:25 37.05609 -3.67579 24921 ft 419 kts 30°
2026-04-16 21:25 37.08133 -3.65731 25314 ft 421 kts 30°
2026-04-16 21:26 37.10653 -3.63848 25696 ft 423 kts 34°
2026-04-16 21:26 37.12871 -3.61403 26049 ft 427 kts 46°
2026-04-16 21:26 37.14885 -3.58660 26447 ft 428 kts 46°
2026-04-16 21:26 37.16898 -3.55947 26805 ft 431 kts 46°
2026-04-16 21:27 37.18974 -3.53216 27140 ft 433 kts 45°
2026-04-16 21:27 37.21078 -3.50493 27516 ft 435 kts 45°
2026-04-16 21:27 37.23198 -3.47762 27873 ft 437 kts 45°
2026-04-16 21:27 37.25325 -3.45023 28216 ft 439 kts 45°
2026-04-16 21:28 37.27460 -3.42266 28554 ft 441 kts 45°
2026-04-16 21:28 37.29605 -3.39489 28893 ft 443 kts 45°
2026-04-16 21:28 37.31754 -3.36701 29216 ft 445 kts 45°
2026-04-16 21:28 37.33920 -3.33885 29534 ft 447 kts 45°
2026-04-16 21:29 37.36090 -3.31062 29850 ft 449 kts 45°
2026-04-16 21:29 37.38265 -3.28227 30140 ft 451 kts 45°
2026-04-16 21:29 37.40419 -3.25419 30421 ft 453 kts 45°
2026-04-16 21:29 37.42606 -3.22565 30714 ft 453 kts 45°
2026-04-16 21:30 37.44805 -3.19693 31059 ft 452 kts 45°
2026-04-16 21:30 37.46995 -3.16829 31411 ft 451 kts 45°
2026-04-16 21:30 37.49142 -3.14020 31729 ft 450 kts 45°
2026-04-16 21:30 37.51314 -3.11175 32014 ft 450 kts 45°
2026-04-16 21:31 37.53485 -3.08330 32333 ft 450 kts 45°
2026-04-16 21:31 37.55661 -3.05475 32663 ft 449 kts 45°
2026-04-16 21:31 37.57827 -3.02631 32981 ft 448 kts 45°
2026-04-16 21:31 37.59978 -2.99809 33279 ft 448 kts 45°
2026-04-16 21:32 37.62122 -2.96998 33579 ft 447 kts 45°
2026-04-16 21:32 37.64281 -2.94166 33885 ft 447 kts 45°
2026-04-16 21:32 37.66443 -2.91328 34186 ft 446 kts 45°
2026-04-16 21:33 37.70781 -2.85623 34222 ft 451 kts 45°
2026-04-16 21:33 37.75088 -2.79947 34203 ft 445 kts 45°
2026-04-16 21:34 37.79346 -2.74313 34226 ft 443 kts 45°
2026-04-16 21:34 37.83612 -2.68647 34227 ft 443 kts 45°
2026-04-16 21:35 37.87860 -2.62996 34231 ft 443 kts 45°
2026-04-16 21:35 37.92110 -2.57332 34234 ft 443 kts 45°
2026-04-16 21:36 37.96338 -2.51689 34237 ft 443 kts 45°
2026-04-16 21:36 38.00589 -2.46013 34238 ft 443 kts 45°
2026-04-16 21:37 38.04841 -2.40331 34241 ft 443 kts 45°
2026-04-16 21:37 38.09052 -2.34691 34244 ft 442 kts 45°
2026-04-16 21:38 38.13282 -2.29016 34240 ft 442 kts 45°
2026-04-16 21:38 38.17511 -2.23332 34239 ft 441 kts 45°
2026-04-16 21:39 38.21681 -2.17603 34229 ft 441 kts 48°
2026-04-16 21:39 38.25468 -2.11509 34236 ft 440 kts 50°
2026-04-16 21:40 38.29196 -2.05334 34228 ft 438 kts 50°
2026-04-16 21:40 38.32928 -1.99246 34227 ft 436 kts 50°
2026-04-16 21:41 38.36675 -1.93156 34231 ft 435 kts 50°
2026-04-16 21:41 38.40395 -1.87116 34220 ft 434 kts 50°
2026-04-16 21:42 38.44129 -1.81049 34223 ft 434 kts 50°
2026-04-16 21:42 38.47853 -1.74983 34229 ft 433 kts 50°
2026-04-16 21:43 38.51582 -1.68897 34222 ft 433 kts 50°
2026-04-16 21:43 38.55278 -1.62852 34231 ft 433 kts 49°
2026-04-16 21:44 38.58985 -1.56778 34212 ft 432 kts 49°
2026-04-16 21:44 38.62658 -1.50748 34223 ft 432 kts 49°
2026-04-16 21:45 38.66362 -1.44655 34231 ft 432 kts 49°
2026-04-16 21:45 38.70036 -1.38600 34230 ft 432 kts 49°
2026-04-16 21:46 38.73719 -1.32521 34210 ft 432 kts 49°
2026-04-16 21:46 38.77396 -1.26439 34215 ft 431 kts 49°
2026-04-16 21:47 38.81073 -1.20346 34213 ft 431 kts 49°
2026-04-16 21:47 38.84724 -1.14282 34224 ft 431 kts 49°
2026-04-16 21:48 38.88382 -1.08196 34212 ft 430 kts 49°
2026-04-16 21:48 38.92035 -1.02105 34208 ft 430 kts 49°
2026-04-16 21:49 38.95068 -0.97040 34210 ft 429 kts 49°
2026-04-16 21:49 38.99308 -0.89946 34199 ft 429 kts 49°
2026-04-16 21:50 39.02335 -0.84871 34200 ft 429 kts 49°
2026-04-16 21:50 39.05982 -0.78761 34189 ft 429 kts 48°
2026-04-16 21:51 39.10237 -0.73501 34200 ft 424 kts 37°
2026-04-16 21:51 39.14823 -0.68732 34178 ft 425 kts 37°
2026-04-16 21:52 39.19404 -0.63904 34186 ft 425 kts 37°
2026-04-16 21:52 39.23966 -0.59038 34188 ft 426 kts 37°
2026-04-16 21:53 39.28544 -0.54144 34182 ft 427 kts 37°
2026-04-16 21:53 39.33214 -0.49499 34191 ft 427 kts 34°
2026-04-16 21:54 39.38002 -0.44935 34187 ft 428 kts 34°
2026-04-16 21:54 39.42775 -0.40344 34186 ft 428 kts 34°
2026-04-16 21:55 39.47519 -0.35734 34187 ft 428 kts 34°
2026-04-16 21:55 39.52288 -0.31078 34182 ft 428 kts 34°
2026-04-16 21:56 39.57015 -0.26454 34182 ft 428 kts 35°
2026-04-16 21:56 39.61781 -0.21785 34182 ft 428 kts 35°
2026-04-16 21:57 39.66505 -0.17149 34183 ft 428 kts 35°
2026-04-16 21:57 39.71267 -0.12468 34178 ft 428 kts 35°
2026-04-16 21:58 39.76006 -0.07801 34180 ft 428 kts 35°
2026-04-16 21:58 39.80762 -0.03109 34178 ft 429 kts 35°
2026-04-16 21:59 39.85272 0.01927 34185 ft 432 kts 44°
2026-04-16 21:59 39.89357 0.07689 34187 ft 433 kts 45°
2026-04-16 22:00 39.93450 0.13468 34192 ft 434 kts 45°
2026-04-16 22:00 39.97556 0.19205 34194 ft 435 kts 45°
2026-04-16 22:01 40.01699 0.24990 34199 ft 436 kts 45°
2026-04-16 22:01 40.05850 0.30786 34195 ft 437 kts 45°
2026-04-16 22:02 40.09980 0.36560 34198 ft 438 kts 45°
2026-04-16 22:02 40.14146 0.42399 34192 ft 439 kts 45°
2026-04-16 22:03 40.18311 0.48249 34188 ft 439 kts 45°
2026-04-16 22:03 40.22461 0.54089 34185 ft 440 kts 45°
2026-04-16 22:04 40.26628 0.59965 34182 ft 439 kts 45°
2026-04-16 22:04 40.30780 0.65831 34181 ft 438 kts 45°
2026-04-16 22:05 40.34922 0.71697 34183 ft 437 kts 45°
2026-04-16 22:05 40.39047 0.77549 34180 ft 436 kts 45°
2026-04-16 22:06 40.43168 0.83409 34183 ft 437 kts 45°
2026-04-16 22:06 40.49336 0.92201 34190 ft 438 kts 45°
2026-04-16 22:07 40.53455 0.98085 34186 ft 440 kts 45°
2026-04-16 22:07 40.57612 1.04041 34188 ft 441 kts 45°
2026-04-16 22:08 40.61772 1.10025 34191 ft 443 kts 45°
2026-04-16 22:08 40.65910 1.15990 34197 ft 444 kts 45°
2026-04-16 22:09 40.70089 1.22023 34192 ft 445 kts 45°
2026-04-16 22:09 40.74265 1.28056 34196 ft 445 kts 45°
2026-04-16 22:10 40.78420 1.34059 34197 ft 445 kts 45°
2026-04-16 22:10 40.82593 1.40106 34199 ft 445 kts 45°
2026-04-16 22:11 40.86769 1.46167 34195 ft 445 kts 46°
2026-04-16 22:11 40.90935 1.52241 34201 ft 444 kts 46°
2026-04-16 22:12 40.95067 1.58283 34203 ft 444 kts 46°
2026-04-16 22:12 40.99206 1.64344 34206 ft 443 kts 46°
2026-04-16 22:13 41.03324 1.70386 34200 ft 443 kts 46°
2026-04-16 22:13 41.07464 1.76467 34199 ft 442 kts 45°
2026-04-16 22:14 41.11594 1.82539 34193 ft 442 kts 45°
2026-04-16 22:14 41.15688 1.88571 34189 ft 442 kts 45°
2026-04-16 22:15 41.19805 1.94650 34186 ft 442 kts 45°
2026-04-16 22:15 41.23920 2.00738 34187 ft 442 kts 45°
2026-04-16 22:16 41.28004 2.06809 34187 ft 443 kts 47°
2026-04-16 22:16 41.29791 2.10172 34185 ft 446 kts 58°
2026-04-16 22:16 41.31176 2.13901 34192 ft 449 kts 66°
2026-04-16 22:17 41.32833 2.21954 34189 ft 453 kts 75°
2026-04-16 22:17 41.34199 2.30090 34187 ft 453 kts 75°
2026-04-16 22:18 41.35603 2.38304 34189 ft 454 kts 74°
2026-04-16 22:18 41.37038 2.46504 34181 ft 455 kts 74°
2026-04-16 22:19 41.38481 2.54712 34188 ft 455 kts 74°
2026-04-16 22:19 41.39915 2.62898 34186 ft 456 kts 74°
2026-04-16 22:20 41.41356 2.71173 34184 ft 456 kts 74°
2026-04-16 22:20 41.42775 2.79366 34184 ft 456 kts 74°
2026-04-16 22:21 41.44199 2.87623 34180 ft 456 kts 75°
2026-04-16 22:21 41.45616 2.95877 34184 ft 456 kts 75°
2026-04-16 22:22 41.47028 3.04139 34182 ft 456 kts 75°
2026-04-16 22:22 41.48421 3.12327 34179 ft 455 kts 75°
2026-04-16 22:23 41.49818 3.20578 34176 ft 455 kts 75°
2026-04-16 22:23 41.51188 3.28817 34176 ft 455 kts 75°
2026-04-16 22:24 41.52551 3.37064 34177 ft 454 kts 75°
2026-04-16 22:24 41.53914 3.45325 34176 ft 455 kts 75°
2026-04-16 22:25 41.55263 3.53515 34173 ft 455 kts 75°
2026-04-16 22:25 41.56631 3.61779 34177 ft 455 kts 75°
2026-04-16 22:26 41.57995 3.70055 34172 ft 455 kts 75°
2026-04-16 22:26 41.59343 3.78283 34173 ft 455 kts 75°
2026-04-16 22:27 41.60694 3.86569 34173 ft 456 kts 75°
2026-04-16 22:27 41.62030 3.94869 34170 ft 456 kts 75°
2026-04-16 22:28 41.63353 4.03156 34164 ft 456 kts 75°
2026-04-16 22:28 41.64664 4.11397 34166 ft 455 kts 75°
2026-04-16 22:29 41.65978 4.19696 34169 ft 455 kts 75°
2026-04-16 22:29 41.67287 4.28002 34171 ft 455 kts 75°
2026-04-16 22:30 41.68585 4.36281 34172 ft 455 kts 75°
2026-04-16 22:30 41.69872 4.44529 34168 ft 455 kts 75°
2026-04-16 22:31 41.71160 4.52815 34163 ft 454 kts 75°
2026-04-16 22:31 41.72234 4.59729 34166 ft 454 kts 73°
2026-04-16 22:32 41.73362 4.63639 34159 ft 445 kts 55°
2026-04-16 22:32 41.75261 4.66863 34165 ft 439 kts 40°
2026-04-16 22:32 41.77670 4.69308 34153 ft 432 kts 25°
2026-04-16 22:32 41.80391 4.71004 34184 ft 430 kts 20°
2026-04-16 22:33 41.85901 4.74074 34164 ft 430 kts 20°
2026-04-16 22:33 41.91458 4.77175 34162 ft 432 kts 20°
2026-04-16 22:34 41.96967 4.80323 34161 ft 433 kts 21°
2026-04-16 22:34 42.02521 4.83533 34162 ft 434 kts 21°
2026-04-16 22:35 42.08084 4.86760 34158 ft 434 kts 21°
2026-04-16 22:35 42.13619 4.89975 34162 ft 435 kts 21°
2026-04-16 22:36 42.19188 4.93214 34160 ft 436 kts 21°
2026-04-16 22:36 42.24764 4.96464 34157 ft 436 kts 21°
2026-04-16 22:37 42.30304 4.99699 34160 ft 436 kts 21°
2026-04-16 22:37 42.35884 5.02964 34155 ft 435 kts 21°
2026-04-16 22:38 42.41332 5.06480 34144 ft 438 kts 30°
2026-04-16 22:38 42.46063 5.11700 34160 ft 440 kts 40°
2026-04-16 22:39 42.50477 5.17236 34149 ft 425 kts 40°
2026-04-16 22:39 42.54823 5.22660 34157 ft 423 kts 40°
2026-04-16 22:40 42.59141 5.28001 34150 ft 422 kts 39°
2026-04-16 22:40 42.63493 5.33376 34153 ft 422 kts 39°
2026-04-16 22:41 42.67842 5.38756 34148 ft 422 kts 40°
2026-04-16 22:41 42.72165 5.44114 34151 ft 423 kts 40°
2026-04-16 22:42 42.76524 5.49530 34149 ft 423 kts 40°
2026-04-16 22:42 42.80879 5.54952 34146 ft 424 kts 40°
2026-04-16 22:43 42.85244 5.60398 34146 ft 425 kts 40°
2026-04-16 22:43 42.89579 5.65816 34146 ft 425 kts 40°
2026-04-16 22:44 42.93954 5.71297 34149 ft 426 kts 40°
2026-04-16 22:44 42.98330 5.76793 34141 ft 427 kts 41°
2026-04-16 22:45 43.01893 5.83265 34139 ft 433 kts 60°
2026-04-16 22:45 43.04111 5.90974 34138 ft 436 kts 68°
2026-04-16 22:46 43.06092 5.98836 34133 ft 436 kts 68°
2026-04-16 22:46 43.08089 6.06646 34131 ft 436 kts 68°
2026-04-16 22:47 43.10120 6.14478 34130 ft 436 kts 68°
2026-04-16 22:47 43.12160 6.22328 34131 ft 436 kts 68°
2026-04-16 22:48 43.14177 6.30114 34131 ft 436 kts 68°
2026-04-16 22:48 43.16199 6.37954 34134 ft 435 kts 68°
2026-04-16 22:49 43.18197 6.45728 34148 ft 434 kts 68°
2026-04-16 22:49 43.20207 6.53565 34142 ft 434 kts 68°
2026-04-16 22:50 43.22457 6.61226 34132 ft 430 kts 57°
2026-04-16 22:50 43.25859 6.67866 34134 ft 426 kts 50°
2026-04-16 22:51 43.29411 6.74395 34138 ft 426 kts 51°
2026-04-16 22:51 43.32896 6.80940 34134 ft 426 kts 51°
2026-04-16 22:52 43.36139 6.87089 34130 ft 425 kts 51°
2026-04-16 22:52 43.39593 6.93658 34138 ft 425 kts 51°
2026-04-16 22:53 43.43051 7.00263 34133 ft 425 kts 51°
2026-04-16 22:53 43.46510 7.06882 34126 ft 425 kts 52°
2026-04-16 22:54 43.49947 7.13474 34139 ft 424 kts 52°
2026-04-16 22:54 43.53388 7.20090 34132 ft 424 kts 52°
2026-04-16 22:55 43.56833 7.26728 34134 ft 424 kts 52°
2026-04-16 22:55 43.60239 7.33301 34130 ft 423 kts 52°
2026-04-16 22:56 43.63669 7.39937 34127 ft 423 kts 52°
2026-04-16 22:56 43.67087 7.46554 34131 ft 423 kts 52°
2026-04-16 22:57 43.70496 7.53168 34127 ft 422 kts 52°
2026-04-16 22:57 43.73890 7.59768 34132 ft 422 kts 52°
2026-04-16 22:58 43.77282 7.66394 34133 ft 421 kts 52°
2026-04-16 22:58 43.80654 7.73026 34134 ft 420 kts 51°
2026-04-16 22:59 43.84736 7.78714 34140 ft 414 kts 35°
2026-04-16 22:59 43.89339 7.83518 34143 ft 414 kts 35°
2026-04-16 23:00 43.93914 7.88406 34144 ft 415 kts 36°
2026-04-16 23:00 43.98019 7.93995 34153 ft 418 kts 45°
2026-04-16 23:01 44.01884 8.00052 34144 ft 418 kts 46°
2026-04-16 23:01 44.05743 8.06110 34155 ft 417 kts 46°
2026-04-16 23:02 44.09610 8.12140 34152 ft 417 kts 46°
2026-04-16 23:02 44.13456 8.18124 34141 ft 417 kts 46°
2026-04-16 23:03 44.17325 8.24152 34148 ft 416 kts 46°
2026-04-16 23:03 44.21196 8.30196 34146 ft 416 kts 46°
2026-04-16 23:04 44.25013 8.36168 34148 ft 416 kts 46°
2026-04-16 23:04 44.28869 8.42214 34155 ft 416 kts 46°
2026-04-16 23:05 44.32719 8.48265 34146 ft 417 kts 46°
2026-04-16 23:05 44.36561 8.54316 34138 ft 417 kts 46°
2026-04-16 23:06 44.40407 8.60386 34132 ft 417 kts 46°
2026-04-16 23:06 44.44255 8.66474 34119 ft 415 kts 46°
2026-04-16 23:07 44.48057 8.72501 34133 ft 415 kts 46°
2026-04-16 23:07 44.51889 8.78587 34136 ft 415 kts 46°
2026-04-16 23:08 44.55712 8.84674 34129 ft 415 kts 46°
2026-04-16 23:08 44.59508 8.90730 34143 ft 415 kts 46°
2026-04-16 23:09 44.63327 8.96836 34139 ft 415 kts 46°
2026-04-16 23:09 44.67139 9.02946 34151 ft 415 kts 46°
2026-04-16 23:10 44.70922 9.09022 34159 ft 415 kts 46°
2026-04-16 23:10 44.74087 9.14113 34169 ft 414 kts 46°
2026-04-16 23:11 44.78033 9.20022 34162 ft 412 kts 41°
2026-04-16 23:11 44.82255 9.25518 34148 ft 412 kts 40°
2026-04-16 23:12 44.86476 9.30978 34160 ft 412 kts 40°
2026-04-16 23:12 44.90665 9.36463 34157 ft 412 kts 41°
2026-04-16 23:13 44.94842 9.41973 34150 ft 412 kts 41°
2026-04-16 23:13 44.99042 9.47531 34149 ft 412 kts 41°
2026-04-16 23:14 45.03232 9.53086 34144 ft 412 kts 41°
2026-04-16 23:14 45.07385 9.58605 34140 ft 412 kts 41°
2026-04-16 23:15 45.13664 9.66970 34136 ft 412 kts 41°
2026-04-16 23:16 45.17819 9.72517 34134 ft 412 kts 41°
2026-04-16 23:16 45.21727 9.78497 34143 ft 413 kts 47°
2026-04-16 23:17 45.25441 9.84708 34129 ft 414 kts 47°
2026-04-16 23:17 45.29170 9.90949 34121 ft 414 kts 47°
2026-04-16 23:18 45.32917 9.97182 34113 ft 414 kts 47°
2026-04-16 23:18 45.36672 10.03424 34111 ft 414 kts 47°
2026-04-16 23:19 45.40404 10.09636 34108 ft 414 kts 47°
2026-04-16 23:19 45.44149 10.15883 34102 ft 414 kts 47°
2026-04-16 23:20 45.47889 10.22138 34108 ft 414 kts 47°
2026-04-16 23:20 45.51629 10.28406 34103 ft 414 kts 47°
2026-04-16 23:21 45.55343 10.34646 34152 ft 414 kts 47°
2026-04-16 23:21 45.59072 10.40925 34153 ft 414 kts 47°
2026-04-16 23:22 45.62797 10.47210 34158 ft 414 kts 47°
2026-04-16 23:22 45.66482 10.53553 34143 ft 414 kts 49°
2026-04-16 23:23 45.69964 10.60064 34156 ft 414 kts 50°
2026-04-16 23:23 45.73458 10.66639 34168 ft 414 kts 50°
2026-04-16 23:24 45.76945 10.73147 34163 ft 414 kts 49°
2026-04-16 23:24 45.80457 10.79697 34173 ft 413 kts 50°
2026-04-16 23:25 45.84096 10.86058 34164 ft 411 kts 45°
2026-04-16 23:25 45.87966 10.92056 34170 ft 411 kts 44°
2026-04-16 23:26 45.91847 10.98080 34172 ft 410 kts 45°
2026-04-16 23:26 45.95695 11.04146 34184 ft 410 kts 45°
2026-04-16 23:27 45.99531 11.10229 34191 ft 411 kts 45°
2026-04-16 23:27 46.03344 11.16304 34215 ft 412 kts 46°
2026-04-16 23:28 46.06721 11.23019 34226 ft 415 kts 52°
2026-04-16 23:28 46.09968 11.29895 34239 ft 415 kts 52°
2026-04-16 23:29 46.13230 11.36793 34243 ft 416 kts 52°
2026-04-16 23:29 46.16304 11.43267 34226 ft 416 kts 52°
2026-04-16 23:30 46.19586 11.50178 34221 ft 417 kts 52°
2026-04-16 23:30 46.22860 11.57085 34209 ft 416 kts 52°
2026-04-16 23:31 46.26128 11.63996 34201 ft 416 kts 52°
2026-04-16 23:31 46.29367 11.70863 34204 ft 416 kts 52°
2026-04-16 23:32 46.32619 11.77775 34212 ft 414 kts 52°
2026-04-16 23:32 46.35852 11.84665 34222 ft 413 kts 52°
2026-04-16 23:33 46.39084 11.91567 34221 ft 413 kts 51°
2026-04-16 23:33 46.42290 11.98433 34219 ft 414 kts 51°
2026-04-16 23:34 46.45534 12.05394 34221 ft 416 kts 51°
2026-04-16 23:34 46.48756 12.12327 34263 ft 416 kts 51°
2026-04-16 23:35 46.52006 12.19338 34259 ft 417 kts 51°
2026-04-16 23:35 46.55247 12.26350 34269 ft 417 kts 50°
2026-04-16 23:36 46.58466 12.33328 34287 ft 418 kts 51°
2026-04-16 23:36 46.61696 12.40350 34286 ft 416 kts 50°
2026-04-16 23:37 46.64911 12.47357 34274 ft 415 kts 50°
2026-04-16 23:37 46.68112 12.54349 34273 ft 414 kts 50°
2026-04-16 23:38 46.71316 12.61270 34266 ft 413 kts 48°
2026-04-16 23:38 46.74777 12.67920 34260 ft 410 kts 46°
2026-04-16 23:39 46.78288 12.74471 34267 ft 410 kts 46°
2026-04-16 23:39 46.81789 12.81074 34255 ft 411 kts 46°
2026-04-16 23:40 46.85269 12.87703 34269 ft 411 kts 46°
2026-04-16 23:40 46.88737 12.94344 34262 ft 408 kts 46°
2026-04-16 23:41 46.92155 13.00908 34257 ft 408 kts 46°
2026-04-16 23:41 46.95593 13.07523 34280 ft 407 kts 46°
2026-04-16 23:42 46.99006 13.14103 34286 ft 408 kts 46°
2026-04-16 23:42 47.02451 13.20760 34269 ft 409 kts 46°
2026-04-16 23:43 47.05878 13.27404 34274 ft 408 kts 46°
2026-04-16 23:43 47.09289 13.34027 34272 ft 409 kts 46°
2026-04-16 23:44 47.12743 13.40750 34295 ft 413 kts 46°
2026-04-16 23:44 47.16227 13.47551 34286 ft 417 kts 47°
2026-04-16 23:45 47.19699 13.54348 34279 ft 418 kts 47°
2026-04-16 23:45 47.23198 13.61215 34298 ft 419 kts 47°
2026-04-16 23:46 47.26676 13.68053 34285 ft 418 kts 47°
2026-04-16 23:46 47.30177 13.74908 34275 ft 418 kts 46°
2026-04-16 23:47 47.33685 13.81759 34284 ft 418 kts 47°
2026-04-16 23:47 47.37160 13.88562 34318 ft 415 kts 47°
2026-04-16 23:48 47.39954 13.94050 34288 ft 416 kts 47°
2026-04-16 23:48 47.43424 14.00885 34290 ft 415 kts 47°
2026-04-16 23:49 47.46900 14.07746 34290 ft 416 kts 47°
2026-04-16 23:49 47.50362 14.14597 34302 ft 417 kts 47°
2026-04-16 23:50 47.53841 14.21500 34299 ft 418 kts 47°
2026-04-16 23:50 47.57325 14.28431 34289 ft 419 kts 47°
2026-04-16 23:51 47.60789 14.35342 34273 ft 419 kts 47°
2026-04-16 23:51 47.64252 14.42266 34286 ft 417 kts 47°
2026-04-16 23:52 47.67703 14.49183 34305 ft 418 kts 48°
2026-04-16 23:52 47.71174 14.56157 34282 ft 419 kts 48°
2026-04-16 23:53 47.74635 14.63130 34296 ft 420 kts 48°
2026-04-16 23:53 47.78114 14.70156 34278 ft 423 kts 48°
2026-04-16 23:54 47.81578 14.77171 34290 ft 424 kts 48°
2026-04-16 23:54 47.85086 14.84290 34286 ft 427 kts 48°
2026-04-16 23:55 47.88527 14.91311 34273 ft 413 kts 48°
2026-04-16 23:55 47.91900 14.98194 34220 ft 411 kts 48°
2026-04-16 23:55 47.93576 15.01616 33880 ft 410 kts 48°
2026-04-16 23:56 47.95246 15.05036 33535 ft 405 kts 49°
2026-04-16 23:56 47.96900 15.08429 33179 ft 401 kts 49°
2026-04-16 23:56 47.98535 15.11785 32786 ft 398 kts 49°
2026-04-16 23:56 48.00164 15.15133 32415 ft 395 kts 49°
2026-04-16 23:57 48.01778 15.18453 32056 ft 392 kts 49°
2026-04-16 23:57 48.03358 15.21706 31698 ft 390 kts 49°
2026-04-16 23:57 48.04948 15.24984 31327 ft 388 kts 49°
2026-04-16 23:57 48.06527 15.28243 30983 ft 386 kts 49°
2026-04-16 23:58 48.08099 15.31492 30626 ft 384 kts 49°
2026-04-16 23:58 48.09666 15.34734 30264 ft 383 kts 49°
2026-04-16 23:58 48.11219 15.37953 29852 ft 381 kts 49°
2026-04-16 23:58 48.12763 15.41155 29466 ft 378 kts 49°
2026-04-16 23:59 48.14296 15.44341 29091 ft 375 kts 49°
2026-04-16 23:59 48.15813 15.47497 28719 ft 372 kts 49°
2026-04-16 23:59 48.17318 15.50630 28349 ft 369 kts 49°
2026-04-16 23:59 48.18814 15.53748 27996 ft 367 kts 49°
2026-04-17 00:00 48.20278 15.56802 27639 ft 364 kts 49°
2026-04-17 00:00 48.21753 15.59884 27281 ft 362 kts 49°
2026-04-17 00:00 48.23215 15.62941 26927 ft 360 kts 49°
2026-04-17 00:00 48.24669 15.65984 26574 ft 358 kts 49°
2026-04-17 00:01 48.26117 15.69021 26220 ft 356 kts 49°
2026-04-17 00:01 48.27555 15.72038 25875 ft 354 kts 49°
2026-04-17 00:01 48.28988 15.75046 25530 ft 353 kts 49°
2026-04-17 00:01 48.30412 15.78040 25183 ft 352 kts 49°
2026-04-17 00:02 48.31829 15.81023 24835 ft 350 kts 49°
2026-04-17 00:02 48.33242 15.84002 24495 ft 349 kts 49°
2026-04-17 00:02 48.34657 15.86987 24073 ft 351 kts 49°
2026-04-17 00:02 48.36069 15.89968 23710 ft 350 kts 50°
2026-04-17 00:03 48.37478 15.92948 23315 ft 349 kts 50°
2026-04-17 00:03 48.38882 15.95921 22945 ft 346 kts 50°
2026-04-17 00:03 48.40257 15.98834 22599 ft 344 kts 50°
2026-04-17 00:03 48.41642 16.01778 22253 ft 342 kts 50°
2026-04-17 00:04 48.42947 16.04766 21947 ft 340 kts 53°
2026-04-17 00:04 48.44186 16.07781 21613 ft 338 kts 53°
2026-04-17 00:04 48.45410 16.10810 21278 ft 336 kts 53°
2026-04-17 00:04 48.46620 16.13811 20958 ft 334 kts 54°
2026-04-17 00:05 48.47827 16.16795 20628 ft 332 kts 53°
2026-04-17 00:05 48.49017 16.19728 20305 ft 331 kts 53°
2026-04-17 00:05 48.50215 16.22678 19971 ft 329 kts 53°
2026-04-17 00:05 48.51414 16.25626 19654 ft 328 kts 54°
2026-04-17 00:06 48.52601 16.28545 19322 ft 326 kts 54°
2026-04-17 00:06 48.53787 16.31463 19007 ft 325 kts 54°
2026-04-17 00:06 48.54968 16.34369 18689 ft 324 kts 54°
2026-04-17 00:06 48.56145 16.37270 18339 ft 323 kts 54°
2026-04-17 00:07 48.57317 16.40160 17975 ft 322 kts 54°
2026-04-17 00:07 48.58483 16.43041 17634 ft 319 kts 54°
2026-04-17 00:07 48.59638 16.45896 17305 ft 317 kts 54°
2026-04-17 00:07 48.60773 16.48705 16984 ft 315 kts 54°
2026-04-17 00:08 48.61913 16.51529 16660 ft 313 kts 54°
2026-04-17 00:08 48.63046 16.54338 16343 ft 311 kts 54°
2026-04-17 00:08 48.64170 16.57128 16020 ft 309 kts 54°
2026-04-17 00:08 48.65289 16.59907 15716 ft 308 kts 54°
2026-04-17 00:09 48.66389 16.62643 15396 ft 306 kts 55°
2026-04-17 00:09 48.67492 16.65390 15078 ft 305 kts 55°
2026-04-17 00:09 48.68595 16.68137 14787 ft 304 kts 55°
2026-04-17 00:09 48.69693 16.70876 14469 ft 303 kts 55°
2026-04-17 00:10 48.70780 16.73593 14158 ft 302 kts 56°
2026-04-17 00:10 48.71891 16.76282 13816 ft 299 kts 49°
2026-04-17 00:10 48.73438 16.78286 13462 ft 290 kts 24°
2026-04-17 00:10 48.75332 16.79181 13131 ft 283 kts
2026-04-17 00:11 48.77283 16.79392 12830 ft 280 kts
2026-04-17 00:11 48.79226 16.79541 12510 ft 279 kts
2026-04-17 00:11 48.81139 16.79697 12205 ft 277 kts
2026-04-17 00:11 48.83065 16.79867 11908 ft 276 kts
2026-04-17 00:12 48.84978 16.80044 11613 ft 274 kts
2026-04-17 00:12 48.86888 16.80222 11297 ft 273 kts
2026-04-17 00:12 48.88790 16.80398 10957 ft 274 kts
2026-04-17 00:12 48.90670 16.80573 10658 ft 273 kts
2026-04-17 00:13 48.92564 16.80750 10368 ft 271 kts
2026-04-17 00:13 48.94424 16.80924 10256 ft 263 kts
2026-04-17 00:13 48.96248 16.81095 9969 ft 262 kts
2026-04-17 00:13 48.98063 16.81264 9674 ft 260 kts
2026-04-17 00:14 48.99872 16.81433 9384 ft 259 kts
2026-04-17 00:14 49.01665 16.81606 9118 ft 257 kts
2026-04-17 00:14 49.03340 16.82428 8834 ft 260 kts 31°
2026-04-17 00:14 49.04593 16.84384 8568 ft 263 kts 58°
2026-04-17 00:15 49.05133 16.87040 8305 ft 265 kts 84°
2026-04-17 00:15 49.05033 16.89844 8062 ft 265 kts 95°
2026-04-17 00:15 49.04764 16.92619 7789 ft 265 kts 96°
2026-04-17 00:15 49.04488 16.95389 7511 ft 263 kts 96°
2026-04-17 00:16 49.04224 16.98146 7241 ft 262 kts 96°
2026-04-17 00:16 49.03968 17.00889 6978 ft 261 kts 95°
2026-04-17 00:16 49.03718 17.03625 6714 ft 261 kts 95°
2026-04-17 00:16 49.03472 17.06360 6435 ft 260 kts 94°
2026-04-17 00:17 49.03630 17.09042 6121 ft 254 kts 66°
2026-04-17 00:17 49.04602 17.11197 5869 ft 246 kts 38°
2026-04-17 00:17 49.06069 17.12450 5588 ft 242 kts 16°
2026-04-17 00:17 49.07731 17.12976 5275 ft 243 kts
2026-04-17 00:18 49.09375 17.12726 5063 ft 235 kts 338°
2026-04-17 00:18 49.10682 17.11365 4956 ft 224 kts 314°
2026-04-17 00:18 49.11497 17.09422 4853 ft 213 kts 292°
2026-04-17 00:18 49.11870 17.07323 4790 ft 199 kts 283°
2026-04-17 00:19 49.12093 17.05280 4667 ft 191 kts 281°
2026-04-17 00:19 49.12273 17.03295 4481 ft 181 kts 279°
2026-04-17 00:19 49.12430 17.01444 4286 ft 176 kts 279°
2026-04-17 00:19 49.12586 16.99585 4098 ft 173 kts 279°
2026-04-17 00:20 49.12737 16.97759 3932 ft 174 kts 279°
2026-04-17 00:20 49.12890 16.95917 3767 ft 176 kts 279°
2026-04-17 00:20 49.13043 16.94076 3575 ft 176 kts 279°
2026-04-17 00:20 49.13196 16.92228 3385 ft 168 kts 279°
2026-04-17 00:21 49.13340 16.90514 3231 ft 160 kts 279°
2026-04-17 00:21 49.13485 16.88793 3060 ft 165 kts 279°
2026-04-17 00:21 49.13629 16.87068 2849 ft 163 kts 279°
2026-04-17 00:21 49.13770 16.85385 2624 ft 156 kts 279°
2026-04-17 00:22 49.14043 16.82148 2242 ft 156 kts 279°
2026-04-17 00:22 49.14185 16.80500 2044 ft 156 kts 279°
2026-04-17 00:22 49.14324 16.78851 1797 ft 157 kts 278°
2026-04-17 00:23 49.14461 16.77212 1590 ft 154 kts 278°
2026-04-17 00:23 49.14595 16.75615 1412 ft 150 kts 278°
2026-04-17 00:23 49.14730 16.74030 1217 ft 150 kts 279°
2026-04-17 00:23 49.14870 16.72457 1050 ft 149 kts 279°
2026-04-17 00:24 49.15002 16.70891 827 ft 148 kts 279°
2026-04-17 00:24 49.15132 16.69433 779 ft 117 kts 277°
2026-04-17 00:24 49.15208 16.68529 771 ft 62 kts 277°
2026-04-17 00:24 49.15262 16.67928 775 ft 48 kts 278°
2026-04-17 00:25 49.15282 16.67703 773 ft 20 kts 278°
2026-04-17 00:25 49.15391 16.67626 772 ft 14 kts
2026-04-17 00:25 49.15454 16.67650 770 ft 14 kts 32°
2026-04-17 00:25 49.15463 16.67789 771 ft 13 kts 98°
2026-04-17 00:26 49.15451 16.67928 772 ft 13 kts 97°
2026-04-17 00:26 49.15439 16.68062 775 ft 13 kts 97°
2026-04-17 00:26 49.15429 16.68193 777 ft 12 kts 97°
2026-04-17 00:26 49.15419 16.68321 777 ft 12 kts 97°
2026-04-17 00:27 49.15407 16.68445 779 ft 12 kts 97°
2026-04-17 00:27 49.15397 16.68566 781 ft 11 kts 97°
2026-04-17 00:27 49.15387 16.68693 780 ft 14 kts 98°
2026-04-17 00:27 49.15371 16.68860 778 ft 18 kts 97°
2026-04-17 00:28 49.15359 16.69007 779 ft 11 kts 97°
2026-04-17 00:28 49.15359 16.69058 779 ft 2 kts 64°
2026-04-17 00:28 49.15370 16.69062 780 ft 1 kts
2026-04-17 00:28 49.15370 16.69063 780 ft 0 kts